Location: Alphen
(52.1351°N, 4.6549°E)
Time: 01:28:56
(UTC+00:00)

Cosmos 1408 - Pass Details

Date: 27 January 2021
Orbit: 469 x 492 km, 82.6° (Epoch: 26 February)

Event Time Altitude Azimuth Distance (km) Brightness Sun altitude
Rises 06:25:03 0° 346° (NNW) 2,533 5.9 -9.8°
Reaches altitude 10° 06:27:10 10° 343° (NNW) 1,653 4.9 -9.5°
Maximum altitude 06:30:43 61° 264° (W) 548 2.5 -9.0°
Drops below altitude 10° 06:34:16 10° 183° (S) 1,649 5.5 -8.5°
Sets 06:36:23 0° 180° (S) 2,527 6.5 -8.2°
